Weather History for KNBC - October, 2012

Change the Weather History Date:

Tuesday, October 30, 2012

  Actual Average Record
Temperature  
Mean Temperature 53 °F -  
Max Temperature 62 °F 72 °F 87 °F (1940)
Min Temperature 45 °F 55 °F 29 °F (1952)
Degree Days  
Heating Degree Days 12    
Growing Degree Days 3 (Base 50)    
Moisture  
Dew Point 27 °F    
Average Humidity 39    
Maximum Humidity 58    
Minimum Humidity 23    
Precipitation  
Precipitation 0.00 in - - ()
Sea Level Pressure  
Sea Level Pressure 29.66 in    
Wind  
Wind Speed 14 mph (West)    
Max Wind Speed 24 mph    
Max Gust Speed 31 mph    
Visibility 10 miles    
Events      
Averages and records for this station are not official NWS values.
T = Trace of Precipitation, MM = Missing Value Source: NWS Daily Summary

Daily Weather History Graph

Daily Weather History Graph

Search for Another Location

Airport or City:

Trip Planner

Search our weather history database for the weather conditions in past years. The results will help you decide how hot, cold, wet, or windy it might be!

Date:

Astronomy

Oct. 30, 2012 Rise Set
Actual Time 7:38 AM EDT 6:33 PM EDT
Civil Twilight 7:13 AM EDT 6:58 PM EDT
Nautical Twilight 6:44 AM EDT 7:27 PM EDT
Astronomical Twilight 6:15 AM EDT 7:56 PM EDT
Moon 7:07 PM EDT (10/30) 8:20 AM EDT (10/30)
Length of Visible Light 11h 45m
Length of Day
10h 54m
Full, 99% of the Moon is Illuminated
Oct 30
Full
Nov 6
Last Quarter
Nov 13
New
Nov 20
First Quarter
Nov 28
Full

Hourly Weather History & Observations

Time (EDT) Temp. Windchill Dew Point Humidity Pressure Visibility Wind Dir Wind Speed Gust Speed Precip Events Conditions
12:56 AM 48.9 °F - 32.0 °F 52% 29.65 in 10.0 mi West 12.7 mph - N/A   Clear
1:56 AM 48.0 °F - 32.0 °F 54% 29.64 in 10.0 mi West 12.7 mph 19.6 mph N/A   Clear
2:56 AM 46.9 °F - 32.0 °F 56% 29.62 in 10.0 mi West 11.5 mph - N/A   Clear
3:56 AM 46.0 °F 40.2 °F 32.0 °F 58% 29.61 in 10.0 mi West 12.7 mph - N/A   Clear
4:56 AM 45.0 °F 37.9 °F 30.0 °F 56% 29.61 in 10.0 mi West 16.1 mph - N/A   Clear
5:56 AM 46.0 °F 40.6 °F 28.0 °F 50% 29.62 in 10.0 mi West 11.5 mph - N/A   Clear
6:56 AM 45.0 °F 38.2 °F 27.0 °F 49% 29.62 in 10.0 mi West 15.0 mph - N/A   Mostly Cloudy
7:56 AM 45.0 °F 37.9 °F 27.0 °F 49% 29.64 in 10.0 mi West 16.1 mph 23.0 mph N/A   Mostly Cloudy
8:56 AM 46.9 °F - 28.9 °F 50% 29.65 in 10.0 mi West 13.8 mph - N/A   Scattered Clouds
9:56 AM 51.1 °F - 30.0 °F 44% 29.65 in 10.0 mi West 15.0 mph 25.3 mph N/A   Scattered Clouds
10:56 AM 53.1 °F - 30.9 °F 43% 29.65 in 10.0 mi WNW 18.4 mph 24.2 mph N/A   Clear
11:56 AM 54.0 °F - 30.0 °F 40% 29.65 in 10.0 mi WNW 17.3 mph 25.3 mph N/A   Mostly Cloudy
12:56 PM 57.0 °F - 28.0 °F 33% 29.64 in 10.0 mi West 24.2 mph 31.1 mph N/A   Mostly Cloudy
1:56 PM 60.1 °F - 26.1 °F 27% 29.62 in 10.0 mi WNW 18.4 mph 28.8 mph N/A   Mostly Cloudy
2:56 PM 60.1 °F - 25.0 °F 26% 29.62 in 10.0 mi WNW 19.6 mph 28.8 mph N/A   Scattered Clouds
3:56 PM 61.0 °F - 24.1 °F 24% 29.62 in 10.0 mi WNW 12.7 mph 25.3 mph N/A   Scattered Clouds
4:56 PM 60.1 °F - 21.9 °F 23% 29.63 in 10.0 mi West 16.1 mph 28.8 mph N/A   Clear
5:56 PM 57.9 °F - 24.1 °F 27% 29.65 in 10.0 mi West 8.1 mph - N/A   Clear
6:56 PM 55.9 °F - 24.1 °F 29% 29.68 in 10.0 mi West 9.2 mph - N/A   Clear
7:56 PM 53.1 °F - 25.0 °F 34% 29.71 in 10.0 mi West 8.1 mph - N/A   Clear
8:56 PM 54.0 °F - 23.0 °F 30% 29.74 in 10.0 mi West 11.5 mph - N/A   Clear
9:56 PM 53.1 °F - 21.9 °F 30% 29.77 in 10.0 mi West 9.2 mph - N/A   Clear
10:56 PM 53.1 °F - 21.9 °F 30% 29.79 in 10.0 mi West 12.7 mph - N/A   Clear
11:56 PM 52.0 °F - 23.0 °F 32% 29.79 in 10.0 mi West 12.7 mph 20.7 mph N/A   Clear